Location: *
(45.9500°N, 9.0833°E)
Time: 21:03:38
(UTC+00:00)

Tiros 1 - Pass Details

Date: 15 June 2021
Orbit: 630 x 664 km, 48.4° (Epoch: 05 August)

Event Time Altitude Azimuth Distance (km) Brightness Sun altitude
Rises 15:51:47 0° 288° (WNW) 2,962 11.5 32.4°
Reaches altitude 10° 15:54:07 10° 288° (WNW) 2,056 11.1 32.0°
Maximum altitude 15:58:52 79° 202° (SSW) 671 7.9 31.1°
Drops below altitude 10° 16:03:38 10° 116° (ESE) 2,069 9.3 30.3°
Sets 16:05:59 0° 115° (ESE) 2,983 10.1 29.9°
